OneWeb SL0518

operational
NORAD ID: 54136 Int'l Des: 2022-138 Owner: ONEWEBN Country: UK Constellation: oneweb
LEOCIRCULARPOLARONEWEB_TYPE

About OneWeb SL0518

Description loading...

Live Position

Loading 3D Globe...

Upcoming Passes

Altitude History

Altitude vs Time

uPlot chart will show altitude changes over time

Two-Line Element Set

1 54136U 22138Z 26061.47139366 -.00000209 00000-0 -55485-3 0 9992
2 54136 87.9235 326.2354 0001664 85.8147 274.3176 13.19725081162758
Epoch: Mar 2, 2026 • Age: 30 hours

Current Status

Altitude 1189.2 km
Velocity 7.26 km/s
Sub-Earth Point -2.30°S, 111.33°W
Launch Date Oct 22, 2022
Age 3.3 years
Type internet

Technical Details

Classification Payload
Mass 148.00 kg
Dry Mass 140.00 kg
Total Mass 148.00 kg
Length 1.30 m
Diameter 1.00 m
Span 5.00 m
Shape Trapezoid+2 pan
Manufacturer ONEWUS
Bus Type ARROW
Phase Status In Orbit
Owner/State ONEWEBN/UK

Large Constellations

Loading constellations...